This is the latest recevied weather packets stored in our database for station/object KF6RAL-6. If no packets are shown the sender has not sent any weather packets the latest 10 day(s).
| Time | Temp. | Humidity | Pressure | Rain* | Wind** | Luminosity | Snow |
|---|---|---|---|---|---|---|---|
| 1788298486 | 28.33° C | 33% | 1012.7 hPa | 0 mm | - | - | - |
| 1788298064 | 28.33° C | 36% | 1012.9 hPa | 0 mm | - | - | - |
| 1788297643 | 28.33° C | 37% | 1012.8 hPa | 0 mm | - | - | - |
| 1788297222 | 27.78° C | 37% | 1013.2 hPa | 0 mm | - | - | - |
| 1788296802 | 27.78° C | 38% | 1013.3 hPa | 0 mm | - | - | - |
| 1788296380 | 27.22° C | 41% | 1013.5 hPa | 0 mm | - | - | - |
| 1788295959 | 27.78° C | 40% | 1013.8 hPa | 0 mm | - | - | - |
| 1788295538 | 28.33° C | 41% | 1013.4 hPa | 0 mm | - | - | - |
| 1788295118 | 27.22° C | 44% | 1013.9 hPa | 0 mm | - | - | - |
| 1788294696 | 26.67° C | 42% | 1013.4 hPa | 0 mm | - | - | - |
| 1788294275 | 26.67° C | 42% | 1013.5 hPa | 0 mm | - | - | - |
| 1788293855 | 26.11° C | 41% | 1014.3 hPa | 0 mm | - | - | - |
| 1788293434 | 25.56° C | 47% | 1014.1 hPa | 0 mm | - | - | - |
| 1788293012 | 25° C | 49% | 1014.2 hPa | 0 mm | - | - | - |
| 1788292591 | 25.56° C | 49% | 1014.2 hPa | 0 mm | - | - | - |
| 1788292170 | 24.44° C | 52% | 1014 hPa | 0 mm | - | - | - |
| 1788291749 | 24.44° C | 56% | 1015 hPa | 0 mm | - | - | - |
| 1788290487 | 23.89° C | 58% | 1014.6 hPa | 0 mm | - | - | - |
| 1788290065 | 23.33° C | 60% | 1015.1 hPa | 0 mm | - | - | - |
| 1788289646 | 22.78° C | 59% | 1015.2 hPa | 0 mm | - | - | - |
| 1788289223 | 22.78° C | 60% | 1015.3 hPa | 0 mm | - | - | - |
| 1788288802 | 22.22° C | 61% | 1015.4 hPa | 0 mm | - | - | - |
| 1788288381 | 22.22° C | 61% | 1015.4 hPa | 0 mm | - | - | - |
| 1788287960 | 22.22° C | 61% | 1015.5 hPa | 0 mm | - | - | - |
| 1788287540 | 21.67° C | 61% | 1015.9 hPa | 0 mm | - | - | - |
* Rain latest hour (hover to see other rain measurements)
** Current wind speed in m/s (hover to see current wind gust speed)